Location: Arnolds Mill
(42.3415°N, 73.5951°W)
Time: 12:58:35
(UTC+00:00)

STARLINK-34404 - Pass Details

Date: 23 June 2025
Orbit: 302 x 304 km, 53.2° (Epoch: 26 June)

Event Time Altitude Azimuth Distance (km) Brightness Sun altitude
Exits shadow 06:03:44 18° 338° (NNW) 850 5.2 -22.4°
Drops below altitude 10° 06:05:36 10° 23° (NNE) 1,180 6.4 -22.3°
Sets 06:07:55 0° 45° (NE) 2,003 7.6 -22.2°
